When you browse on this site, cookies collect data to enhance your experience and personalize the content and advertising you see.
Visit our Privacy Policy to learn more. By continuing to use the site, you agree to this use of cookies and data.
  • In Czech Republic
  • List of Countries
  • For 7 days
  • Water Temperature
  • Weather Map
  • Weather Widgets
  • user-avatar
    Login

    Hourly Weather Salzburg

    Today, 7 December, Saturday

    Time Temperature Precipitation Wind Pressure Humidity
    00:00 -3°C° 0 mm 1 mps 623 mmHg 58%
    01:00 -5°C° 0 mm 2 mps 623 mmHg 56%
    02:00 -5°C° 0 mm 2 mps 623 mmHg 57%
    03:00 -5°C° 0 mm 2 mps 622 mmHg 57%
    04:00 -3°C° 0 mm 1 mps 622 mmHg 58%
    05:00 -2°C° 0.1 mm 1 mps 622 mmHg 60%
    06:00 -2°C° 0.1 mm 1 mps 623 mmHg 62%
    07:00 -2°C° 0.1 mm 0 mps 623 mmHg 64%
    08:00 -2°C° 0 mm 0 mps 623 mmHg 66%
    09:00 0°C° 0 mm 1 mps 624 mmHg 68%
    10:00 0°C° 0 mm 1 mps 624 mmHg 71%
    11:00 0°C° 0.2 mm 1 mps 624 mmHg 76%
    12:00 0°C° 0.2 mm 1 mps 624 mmHg 82%
    13:00 0°C° 0.2 mm 1 mps 624 mmHg 88%
    14:00 0°C° 0.2 mm 1 mps 624 mmHg 91%
    15:00 -1°C° 0.2 mm 1 mps 624 mmHg 94%
    16:00 -1°C° 0.2 mm 1 mps 624 mmHg 97%
    17:00 -1°C° 0.2 mm 1 mps 624 mmHg 97%
    18:00 -1°C° 0.2 mm 1 mps 625 mmHg 97%
    19:00 -1°C° 0.2 mm 1 mps 625 mmHg 97%
    20:00 -1°C° 0 mm 1 mps 625 mmHg 96%
    21:00 -2°C° 0 mm 1 mps 625 mmHg 95%
    22:00 -2°C° 0 mm 1 mps 625 mmHg 94%
    23:00 -2°C° 0 mm 1 mps 625 mmHg 93%

    Tomorrow, 8 December, Sunday

    Time Temperature Precipitation Wind Pressure Humidity
    00:00 -2°C° 0 mm 1 mps 625 mmHg 92%
    01:00 -2°C° 0 mm 1 mps 625 mmHg 91%
    02:00 -3°C° 0 mm 1 mps 624 mmHg 89%
    03:00 -3°C° 0 mm 1 mps 624 mmHg 87%
    04:00 -3°C° 0 mm 1 mps 623 mmHg 85%
    05:00 -3°C° 0 mm 1 mps 623 mmHg 83%
    06:00 -3°C° 0 mm 1 mps 623 mmHg 81%
    07:00 -5°C° 0 mm 2 mps 623 mmHg 79%
    08:00 -2°C° 0 mm 1 mps 623 mmHg 77%
    09:00 -1°C° 0 mm 1 mps 624 mmHg 74%
    10:00 0°C° 0 mm 1 mps 624 mmHg 72%
    11:00 +1°C° 0 mm 1 mps 624 mmHg 74%
    12:00 +2°C° 0 mm 1 mps 623 mmHg 76%
    13:00 +2°C° 0 mm 0 mps 623 mmHg 77%
    14:00 +2°C° 0 mm 1 mps 622 mmHg 75%
    15:00 +1°C° 0 mm 1 mps 622 mmHg 73%
    16:00 0°C° 0 mm 1 mps 621 mmHg 70%
    17:00 -3°C° 0 mm 2 mps 621 mmHg 70%
    18:00 -3°C° 0 mm 2 mps 621 mmHg 70%
    19:00 -3°C° 0 mm 2 mps 621 mmHg 69%
    20:00 -3°C° 0 mm 2 mps 620 mmHg 68%
    21:00 -3°C° 0 mm 2 mps 620 mmHg 67%
    22:00 -3°C° 0 mm 2 mps 620 mmHg 66%
    23:00 -3°C° 0 mm 2 mps 619 mmHg 67%

    Day after tomorrow, 9 December, Monday

    Time Temperature Precipitation Wind Pressure Humidity
    00:00 -3°C° 0 mm 2 mps 619 mmHg 68%
    01:00 -3°C° 0 mm 2 mps 619 mmHg 70%
    02:00 -3°C° 0 mm 2 mps 618 mmHg 70%
    03:00 -1°C° 0 mm 1 mps 618 mmHg 70%
    04:00 -1°C° 0 mm 1 mps 618 mmHg 70%
    05:00 -1°C° 0.5 mm 1 mps 618 mmHg 77%
    06:00 -2°C° 0.5 mm 1 mps 618 mmHg 84%
    07:00 -2°C° 0.5 mm 1 mps 618 mmHg 91%
    08:00 -2°C° 0.8 mm 1 mps 618 mmHg 91%
    09:00 -1°C° 0.8 mm 1 mps 618 mmHg 91%
    10:00 -1°C° 0.8 mm 1 mps 617 mmHg 92%
    11:00 -1°C° 0.1 mm 1 mps 617 mmHg 90%
    12:00 0°C° 0.1 mm 1 mps 617 mmHg 89%
    13:00 0°C° 0.1 mm 1 mps 617 mmHg 88%
    14:00 -2°C° 0 mm 0 mps 616 mmHg 88%
    15:00 -3°C° 0 mm 0 mps 616 mmHg 89%
    16:00 -3°C° 0 mm 0 mps 615 mmHg 89%
    17:00 -2°C° 0.1 mm 1 mps 616 mmHg 90%
    18:00 -3°C° 0.1 mm 1 mps 617 mmHg 90%
    19:00 -3°C° 0.1 mm 1 mps 617 mmHg 90%
    20:00 -5°C° 0.6 mm 2 mps 618 mmHg 92%
    21:00 -5°C° 0.6 mm 2 mps 618 mmHg 94%
    22:00 -5°C° 0.6 mm 2 mps 619 mmHg 96%
    23:00 -6°C° 0.3 mm 2 mps 619 mmHg 95%

    10 December, Tuesday

    Time Temperature Precipitation Wind Pressure Humidity
    00:00 -7°C° 0.3 mm 2 mps 619 mmHg 93%
    01:00 -8°C° 0.3 mm 2 mps 619 mmHg 92%
    02:00 -7°C° 0.1 mm 1 mps 619 mmHg 92%
    03:00 -7°C° 0.1 mm 1 mps 620 mmHg 93%
    04:00 -7°C° 0.1 mm 1 mps 620 mmHg 94%
    05:00 -7°C° 0.6 mm 1 mps 621 mmHg 95%
    06:00 -7°C° 0.6 mm 2 mps 622 mmHg 96%
    07:00 -7°C° 0.6 mm 2 mps 622 mmHg 96%
    08:00 -7°C° 1.1 mm 2 mps 623 mmHg 95%
    09:00 -8°C° 1.1 mm 3 mps 624 mmHg 94%
    10:00 -7°C° 1.1 mm 3 mps 625 mmHg 93%
    11:00 -7°C° 0.2 mm 3 mps 625 mmHg 89%
    12:00 -7°C° 0.2 mm 3 mps 625 mmHg 85%
    13:00 -8°C° 0.2 mm 3 mps 625 mmHg 82%
    14:00 -8°C° 0.1 mm 3 mps 625 mmHg 85%
    15:00 -8°C° 0.1 mm 2 mps 625 mmHg 88%
    16:00 -9°C° 0.1 mm 2 mps 625 mmHg 92%
    17:00 -10°C° 0 mm 2 mps 625 mmHg 92%
    18:00 -10°C° 0 mm 1 mps 625 mmHg 93%
    19:00 -11°C° 0 mm 1 mps 625 mmHg 93%
    20:00 -11°C° 0 mm 1 mps 625 mmHg 91%
    21:00 -11°C° 0 mm 1 mps 625 mmHg 89%
    22:00 -11°C° 0 mm 1 mps 624 mmHg 87%
    23:00 -12°C° 0 mm 1 mps 624 mmHg 83%

    11 December, Wednesday

    Time Temperature Precipitation Wind Pressure Humidity
    00:00 -14°C° 0 mm 2 mps 624 mmHg 79%
    01:00 -14°C° 0 mm 2 mps 623 mmHg 76%
    02:00 -13°C° 0 mm 2 mps 623 mmHg 69%
    03:00 -13°C° 0 mm 2 mps 623 mmHg 63%
    04:00 -13°C° 0 mm 2 mps 622 mmHg 57%
    05:00 -12°C° 0 mm 2 mps 622 mmHg 53%
    06:00 -12°C° 0 mm 2 mps 622 mmHg 50%
    07:00 -10°C° 0 mm 2 mps 622 mmHg 46%
    08:00 -8°C° 0 mm 1 mps 622 mmHg 48%
    09:00 -6°C° 0 mm 1 mps 623 mmHg 51%
    10:00 -3°C° 0 mm 1 mps 623 mmHg 53%
    11:00 -2°C° 0 mm 1 mps 623 mmHg 57%
    12:00 -2°C° 0 mm 0 mps 623 mmHg 62%
    13:00 -1°C° 0 mm 0 mps 623 mmHg 66%
    14:00 -2°C° 0 mm 0 mps 622 mmHg 63%
    15:00 -4°C° 0 mm 0 mps 621 mmHg 61%
    16:00 -5°C° 0 mm 0 mps 621 mmHg 58%
    17:00 -6°C° 0 mm 1 mps 620 mmHg 57%
    18:00 -6°C° 0 mm 1 mps 620 mmHg 55%
    19:00 -6°C° 0 mm 1 mps 620 mmHg 54%
    20:00 -6°C° 0.1 mm 1 mps 620 mmHg 58%
    21:00 -6°C° 0.1 mm 1 mps 620 mmHg 62%
    22:00 -6°C° 0.1 mm 0 mps 620 mmHg 67%
    23:00 -6°C° 0.4 mm 1 mps 620 mmHg 74%

    12 December, Thursday

    Time Temperature Precipitation Wind Pressure Humidity
    00:00 -6°C° 0.4 mm 1 mps 620 mmHg 82%
    01:00 -6°C° 0.4 mm 1 mps 620 mmHg 90%
    02:00 -6°C° 0.7 mm 1 mps 620 mmHg 92%
    03:00 -6°C° 0.7 mm 1 mps 619 mmHg 94%
    04:00 -6°C° 0.7 mm 1 mps 619 mmHg 97%
    05:00 -6°C° 0.5 mm 1 mps 619 mmHg 96%
    06:00 -6°C° 0.5 mm 1 mps 619 mmHg 94%
    07:00 -6°C° 0.5 mm 1 mps 619 mmHg 93%
    08:00 -6°C° 0.1 mm 1 mps 620 mmHg 91%
    09:00 -6°C° 0.1 mm 1 mps 620 mmHg 90%
    10:00 -4°C° 0.1 mm 1 mps 620 mmHg 88%
    11:00 -4°C° 0.2 mm 1 mps 620 mmHg 88%
    12:00 -4°C° 0.2 mm 1 mps 620 mmHg 88%
    13:00 -3°C° 0.2 mm 1 mps 620 mmHg 88%
    14:00 -4°C° 0.1 mm 1 mps 619 mmHg 90%
    15:00 -7°C° 0.1 mm 0 mps 618 mmHg 92%
    16:00 -8°C° 0.1 mm 0 mps 618 mmHg 93%
    17:00 -8°C° 0 mm 1 mps 618 mmHg 92%
    18:00 -9°C° 0 mm 1 mps 617 mmHg 90%
    19:00 -10°C° 0 mm 2 mps 617 mmHg 88%
    20:00 -12°C° 0 mm 2 mps 616 mmHg 86%
    21:00 -12°C° 0 mm 2 mps 616 mmHg 84%
    22:00 -13°C° 0 mm 3 mps 615 mmHg 82%
    23:00 -13°C° 0 mm 3 mps 614 mmHg 79%
    Show more